Flag for U.S.A. Weather past 2 weeks in West Palm Beach, Florida, U.S.A.

Now
92 °F

Scattered clouds.


Feels Like: 98 °F
Forecast: 75 / 93 °F
Wind: 18 mph from West

Location: Palm Beach International Airport

Current Time: Apr 26, 2015 at 6:59:02 PM

Latest Report: Apr 26, 2015 at 5:53 PM


Visibility: 10 mi

Pressure: 29.75 "Hg

Humidity: 49%

Dew point: 70 °F

Location of West Palm BeachLocation

Historic Weather in West Palm Beach — Graph

°F

West Palm Beach temperature yesterday

Maximum temperature yesterday: 87 °F (at 3:53 PM)
Minimum temperature yesterday: 75 °F (at 6:53 AM)
Average temperature yesterday: 81 °F

Past Weeks' High & Low Weather Summary

 TemperatureHumidityPressure
High95 °F (Apr 26, 2:53 PM)97% (Apr 20, 3:58 PM)30.27 "Hg (Apr 20, 3:58 PM)
Low70 °F (Apr 12, 6:01 AM)44% (Apr 18, 2:53 PM)29.75 "Hg (Apr 26, 4:53 PM)
Average79 °F76%30.00 "Hg
* Reported Apr 11 5:53 PM — Apr 26 5:53 PM, West Palm Beach, Weather by CustomWeather, © 2015

Note: Actual official high and low records may vary slightly from our data, if they occured in-between our weather recording intervals... More about our weather records

Advertising

West Palm Beach weather history for previous 24 hours

 ConditionsComfort  
Time TempWeatherWind HumidityBarometerVisibility
5:53 PM
Sun, Apr 26
92 °FScattered clouds.18 mph49%29.75 "Hg10 mi
4:53 PM94 °FScattered clouds.21 mph44%29.75 "Hg10 mi
3:53 PM94 °FScattered clouds.18 mph46%29.76 "Hg10 mi
2:53 PM95 °FScattered clouds.18 mph44%29.78 "Hg10 mi
1:53 PM93 °FScattered clouds.21 mph50%29.79 "Hg10 mi
12:53 PM92 °FPassing clouds.21 mph51%29.80 "Hg10 mi
11:53 AM90 °FPassing clouds.21 mph54%29.82 "Hg10 mi
10:53 AM87 °FSunny.16 mph61%29.83 "Hg10 mi
9:53 AM84 °FSunny.N/A72%29.83 "Hg10 mi
8:53 AM80 °FPassing clouds.16 mph81%29.83 "Hg10 mi
7:53 AM77 °FPassing clouds.12 mph88%29.82 "Hg10 mi
6:53 AM75 °FPassing clouds.13 mph90%29.81 "Hg10 mi
5:53 AM75 °FClear.13 mph94%29.78 "Hg10 mi
4:53 AM74 °FPassing clouds.10 mph97%29.80 "Hg10 mi
3:53 AM74 °FPassing clouds.8 mph97%29.82 "Hg10 mi
2:53 AM75 °FClear.7 mph94%29.85 "Hg10 mi
1:53 AM76 °FClear.12 mph91%29.86 "Hg10 mi
12:53 AM78 °FPassing clouds.10 mph82%29.89 "Hg10 mi
11:53 PM
Sat, Apr 25
79 °FClear.9 mph84%29.88 "Hg10 mi
10:53 PM80 °FClear.7 mph87%29.87 "Hg10 mi
9:53 PM80 °FClear.6 mph87%29.86 "Hg10 mi
8:53 PM81 °FPassing clouds.7 mph85%29.86 "Hg10 mi
7:53 PM82 °FScattered clouds.10 mph82%29.85 "Hg10 mi
6:53 PM83 °FBroken clouds.3 mph79%29.85 "Hg10 mi
Weather by CustomWeather, © 2015

See weather overviewHow to use our weather pages